Le nostre stazioni meteo in Italia

Pubblicità
Il mio iltempo24.it
Termoli, Italia (16232): Temperatura & dewpoint: 09.09.2019 21:00:00 - 15.09.2019 21:00:00 (CEST)Termoli, Italia (16232): velocità del vento: 09.09.2019 21:00:00 - 15.09.2019 21:00:00 (CEST)Termoli, Italia (16232): direzione del vento: 09.09.2019 21:00:00 - 15.09.2019 21:00:00 (CEST)Termoli, Italia (16232): reduced air pressure: 09.09.2019 21:00:00 - 15.09.2019 21:00:00 (CEST)Termoli, Italia (16232): visibility: 09.09.2019 21:00:00 - 15.09.2019 21:00:00 (CEST)Termoli, Italia (16232): ore di luce: 09.09.2019 21:00:00 - 15.09.2019 21:00:00 (CEST)
Data & Tempo tt [°C] td [°C] ff [km/h] ff [kn] dd ppp [hPa] vv [km] sd [min]
15.09.2019 21:00:00 - - - - - - - -
15.09.2019 20:00:00 24,0 20,7 0 0 N 1021,8 15 -
15.09.2019 19:00:00 - - - - - - - -
15.09.2019 18:00:00 - - - - - - - -
15.09.2019 17:00:00 25,6 21,3 11 6 N 1022,8 20 60
15.09.2019 16:00:00 - - - - - - - -
15.09.2019 15:00:00 - - - - - - - -
15.09.2019 14:00:00 24,6 22,5 15 8 N 1023,8 10 60
15.09.2019 13:00:00 - - - - - - - -
15.09.2019 12:00:00 - - - - - - - -
15.09.2019 11:00:00 25,4 21,5 18 10 NNO 1024,6 20 60
15.09.2019 10:00:00 - - - - - - - -
15.09.2019 09:00:00 - - - - - - - -
15.09.2019 08:00:00 22,6 15,9 24 13 ONO 1024,4 20 12
15.09.2019 07:00:00 - - - - - - - -
15.09.2019 06:00:00 - - - - - - - -
15.09.2019 05:00:00 - - - - - - - -
15.09.2019 04:00:00 - - - - - - - -
15.09.2019 03:00:00 - - - - - - - -
15.09.2019 02:00:00 - - - - - - - -
15.09.2019 01:00:00 - - - - - - - -
15.09.2019 00:00:00 - - - - - - - -
14.09.2019 23:00:00 - - - - - - - -
14.09.2019 22:00:00 - - - - - - - -
14.09.2019 21:00:00 - - - - - - - -
14.09.2019 20:00:00 25,0 21,5 18 10 NO 1024,7 20 -
14.09.2019 19:00:00 - - - - - - - -
14.09.2019 18:00:00 - - - - - - - -
14.09.2019 17:00:00 26,4 21,8 26 14 NNO 1025,1 25 60
14.09.2019 16:00:00 - - - - - - - -
14.09.2019 15:00:00 - - - - - - - -
14.09.2019 14:00:00 26,4 21,8 24 13 NO 1026,2 25 60
14.09.2019 13:00:00 - - - - - - - -
14.09.2019 12:00:00 - - - - - - - -
14.09.2019 11:00:00 25,0 21,9 26 14 NO 1026,5 25 60
14.09.2019 10:00:00 - - - - - - - -
14.09.2019 09:00:00 - - - - - - - -
14.09.2019 08:00:00 22,0 18,0 18 10 ONO 1026,2 20 12
14.09.2019 07:00:00 - - - - - - - -
14.09.2019 06:00:00 - - - - - - - -
14.09.2019 05:00:00 - - - - - - - -
14.09.2019 04:00:00 - - - - - - - -
14.09.2019 03:00:00 - - - - - - - -
14.09.2019 02:00:00 - - - - - - - -
14.09.2019 01:00:00 - - - - - - - -
14.09.2019 00:00:00 - - - - - - - -
13.09.2019 23:00:00 - - - - - - - -
13.09.2019 22:00:00 - - - - - - - -
13.09.2019 21:00:00 - - - - - - - -
13.09.2019 20:00:00 24,6 22,3 18 10 NO 1026,4 20 -
13.09.2019 19:00:00 - - - - - - - -
13.09.2019 18:00:00 - - - - - - - -
13.09.2019 17:00:00 26,4 20,7 21 11 NNO 1027,0 20 60
13.09.2019 16:00:00 - - - - - - - -
13.09.2019 15:00:00 - - - - - - - -
13.09.2019 14:00:00 26,0 23,5 26 14 NNO 1027,8 20 60
13.09.2019 13:00:00 - - - - - - - -
13.09.2019 12:00:00 - - - - - - - -
13.09.2019 11:00:00 24,8 21,5 28 15 NO 1028,3 18 60
13.09.2019 10:00:00 - - - - - - - -
13.09.2019 09:00:00 - - - - - - - -
13.09.2019 08:00:00 23,0 19,8 29 16 ONO 1027,2 20 30
13.09.2019 07:00:00 - - - - - - - -
13.09.2019 06:00:00 - - - - - - - -
13.09.2019 05:00:00 - - - - - - - -
13.09.2019 04:00:00 - - - - - - - -
13.09.2019 03:00:00 - - - - - - - -
13.09.2019 02:00:00 - - - - - - - -
13.09.2019 01:00:00 - - - - - - - -
13.09.2019 00:00:00 - - - - - - - -
12.09.2019 23:00:00 - - - - - - - -
12.09.2019 22:00:00 - - - - - - - -
12.09.2019 21:00:00 - - - - - - - -
12.09.2019 20:00:00 24,6 22,7 34 18 NNO 1026,2 18 -
12.09.2019 19:00:00 - - - - - - - -
12.09.2019 18:00:00 - - - - - - - -
12.09.2019 17:00:00 26,0 19,9 29 16 NNO 1025,2 18 60
12.09.2019 16:00:00 - - - - - - - -
12.09.2019 15:00:00 - - - - - - - -
12.09.2019 14:00:00 25,4 20,2 26 14 NO 1026,0 20 60
12.09.2019 13:00:00 - - - - - - - -
12.09.2019 12:00:00 - - - - - - - -
12.09.2019 11:00:00 24,0 19,9 26 14 NO 1025,5 18 60
12.09.2019 10:00:00 - - - - - - - -
12.09.2019 09:00:00 - - - - - - - -
12.09.2019 08:00:00 20,2 15,4 16 9 O 1023,3 25 0
12.09.2019 07:00:00 - - - - - - - -
12.09.2019 06:00:00 - - - - - - - -
12.09.2019 05:00:00 - - - - - - - -
12.09.2019 04:00:00 - - - - - - - -
12.09.2019 03:00:00 - - - - - - - -
12.09.2019 02:00:00 - - - - - - - -
12.09.2019 01:00:00 - - - - - - - -
12.09.2019 00:00:00 - - - - - - - -
11.09.2019 23:00:00 - - - - - - - -
11.09.2019 22:00:00 - - - - - - - -
11.09.2019 21:00:00 - - - - - - - -
11.09.2019 20:00:00 24,0 20,3 9 5 NNO 1020,2 25 0
11.09.2019 19:00:00 - - - - - - - -
11.09.2019 18:00:00 - - - - - - - -
11.09.2019 17:00:00 26,0 18,9 11 6 NNO 1019,9 18 60
11.09.2019 16:00:00 - - - - - - - -
11.09.2019 15:00:00 - - - - - - - -
11.09.2019 14:00:00 25,0 22,1 22 12 NNO 1019,3 30 60
11.09.2019 13:00:00 - - - - - - - -
11.09.2019 12:00:00 - - - - - - - -
11.09.2019 11:00:00 24,0 18,2 26 14 NO 1019,1 20 0
11.09.2019 10:00:00 - - - - - - - -
11.09.2019 09:00:00 - - - - - - - -
11.09.2019 08:00:00 20,4 15,6 15 8 O 1016,4 25 12
11.09.2019 07:00:00 - - - - - - - -
11.09.2019 06:00:00 - - - - - - - -
11.09.2019 05:00:00 - - - - - - - -
11.09.2019 04:00:00 - - - - - - - -
11.09.2019 03:00:00 - - - - - - - -
11.09.2019 02:00:00 - - - - - - - -
11.09.2019 01:00:00 - - - - - - - -
11.09.2019 00:00:00 - - - - - - - -
10.09.2019 23:00:00 - - - - - - - -
10.09.2019 22:00:00 - - - - - - - -
10.09.2019 21:00:00 - - - - - - - -
10.09.2019 20:00:00 24,8 13,7 8 4 NE 1014,3 45 0
10.09.2019 19:00:00 - - - - - - - -
10.09.2019 18:00:00 - - - - - - - -
10.09.2019 17:00:00 26,8 14,2 15 8 ENE 1014,1 45 60
10.09.2019 16:00:00 - - - - - - - -
10.09.2019 15:00:00 - - - - - - - -
10.09.2019 14:00:00 26,2 17,0 15 8 ENE 1014,7 45 60
10.09.2019 13:00:00 - - - - - - - -
10.09.2019 12:00:00 - - - - - - - -
10.09.2019 11:00:00 24,4 17,2 5 3 ESE 1015,8 25 60
10.09.2019 10:00:00 - - - - - - - -
10.09.2019 09:00:00 - - - - - - - -
10.09.2019 08:00:00 19,8 17,8 5 3 SSO 1015,6 20 18
10.09.2019 07:00:00 - - - - - - - -
10.09.2019 06:00:00 - - - - - - - -
10.09.2019 05:00:00 - - - - - - - -
10.09.2019 04:00:00 - - - - - - - -
10.09.2019 03:00:00 - - - - - - - -
10.09.2019 02:00:00 - - - - - - - -
10.09.2019 01:00:00 - - - - - - - -
10.09.2019 00:00:00 - - - - - - - -
09.09.2019 23:00:00 - - - - - - - -
09.09.2019 22:00:00 - - - - - - - -
09.09.2019 21:00:00 - - - - - - - -

tt = Temperatura
td = dewpoint
ff = velocità del vento
dd = direzione del vento
ppp = reduced air pressure
vv = visibility
sd = ore di luce

Stazioni seguenti

WeatherPro
AMSI
MeteoEarth